| time (UTC) | temp F | wind direction | speed MPH | gust MPH | rain 1hr in | rain 24hr in | rain mn in | humidity % | barometer mb |
| 20260506201631 | 68 | 8 | 3.0 | 3.0 | 0.00 | 0.17 | 0.17 | 75 | 1009.8 |
| 20260506201127 | 66 | 226 | 4.0 | 7.0 | 0.00 | 0.17 | 0.17 | 75 | 1010.0 |
| 20260506200624 | 66 | 84 | 3.0 | 6.0 | 0.00 | 0.17 | 0.17 | 76 | 1010.0 |
| 20260506200121 | 65 | 22 | 5.0 | 6.0 | 0.00 | 0.17 | 0.17 | 77 | 1010.1 |
| 20260506195617 | 65 | 149 | 5.0 | 7.0 | 0.00 | 0.17 | 0.17 | 77 | 1010.0 |
| 20260506195114 | 65 | 131 | 2.0 | 6.0 | 0.00 | 0.17 | 0.17 | 77 | 1010.3 |
| 20260506194611 | 65 | 253 | 3.0 | 6.0 | 0.00 | 0.17 | 0.17 | 77 | 1010.3 |
| 20260506194107 | 65 | 230 | 3.0 | 6.0 | 0.00 | 0.17 | 0.17 | 77 | 1010.3 |
| 20260506193605 | 65 | 191 | 2.0 | 5.0 | 0.00 | 0.17 | 0.17 | 78 | 1010.2 |
| 20260506193103 | 64 | 227 | 3.0 | 5.0 | 0.00 | 0.17 | 0.17 | 78 | 1010.3 |
| 20260506192559 | 64 | 114 | 3.0 | 3.0 | 0.00 | 0.17 | 0.17 | 79 | 1010.3 |
| 20260506192055 | 64 | 215 | 3.0 | 6.0 | 0.00 | 0.17 | 0.17 | 79 | 1010.4 |
| 20260506191551 | 64 | 156 | 3.0 | 5.0 | 0.00 | 0.17 | 0.17 | 79 | 1010.5 |
| 20260506191047 | 63 | 163 | 3.0 | 7.0 | 0.00 | 0.17 | 0.17 | 79 | 1010.6 |
| 20260506190545 | 63 | 177 | 3.0 | 3.0 | 0.00 | 0.17 | 0.17 | 79 | 1010.6 |
| 20260506190042 | 63 | 240 | 3.0 | 7.0 | 0.00 | 0.17 | 0.17 | 79 | 1010.8 |
| 20260506185539 | 63 | 155 | 2.0 | 3.0 | 0.00 | 0.17 | 0.17 | 79 | 1010.6 |
| 20260506185036 | 63 | 92 | 1.0 | 6.0 | 0.00 | 0.17 | 0.17 | 80 | 1010.6 |
| 20260506184533 | 63 | 194 | 3.0 | 3.0 | 0.00 | 0.17 | 0.17 | 80 | 1010.8 |
| 20260506184030 | 63 | 254 | 4.0 | 7.0 | 0.00 | 0.17 | 0.17 | 80 | 1010.9 |
| 20260506183526 | 63 | 208 | 3.0 | 5.0 | 0.00 | 0.17 | 0.17 | 81 | 1011.0 |
| 20260506183023 | 62 | 98 | 1.0 | 16.0 | 0.00 | 0.17 | 0.17 | 81 | 1011.1 |
| 20260506182520 | 62 | 191 | 5.0 | 7.0 | 0.00 | 0.17 | 0.17 | 82 | 1011.0 |
| 20260506182017 | 62 | 215 | 4.0 | 8.0 | 0.00 | 0.17 | 0.17 | 82 | 1010.9 |
| 20260506181515 | 62 | 266 | 4.0 | 6.0 | 0.00 | 0.17 | 0.17 | 83 | 1011.0 |
| 20260506181012 | 62 | 110 | 3.0 | 7.0 | 0.00 | 0.17 | 0.17 | 83 | 1010.9 |
| 20260506180508 | 62 | 234 | 6.0 | 10.0 | 0.00 | 0.17 | 0.17 | 85 | 1010.9 |
| 20260506180006 | 62 | 136 | 3.0 | 7.0 | 0.00 | 0.17 | 0.17 | 86 | 1011.0 |
| 20260506175502 | 61 | 219 | 4.0 | 6.0 | 0.00 | 0.17 | 0.17 | 87 | 1011.0 |
| 20260506174958 | 61 | 257 | 5.0 | 6.0 | 0.00 | 0.17 | 0.17 | 87 | 1011.0 |
| 20260506174456 | 61 | 204 | 3.0 | 3.0 | 0.00 | 0.17 | 0.17 | 87 | 1011.2 |
| 20260506173952 | 61 | 11 | 3.0 | 8.0 | 0.00 | 0.17 | 0.17 | 87 | 1011.1 |
| 20260506173450 | 61 | 233 | 4.0 | 7.0 | 0.00 | 0.17 | 0.17 | 87 | 1011.2 |
| 20260506172946 | 61 | 187 | 3.0 | 6.0 | 0.00 | 0.17 | 0.17 | 88 | 1011.0 |
| 20260506172444 | 61 | 106 | 1.0 | 11.0 | 0.00 | 0.17 | 0.17 | 88 | 1011.1 |
| 20260506171940 | 61 | 212 | 3.0 | 5.0 | 0.00 | 0.17 | 0.17 | 88 | 1011.0 |
| 20260506171438 | 61 | 199 | 2.0 | 5.0 | 0.00 | 0.17 | 0.17 | 88 | 1011.4 |
| 20260506170936 | 61 | 146 | 3.0 | 10.0 | 0.00 | 0.17 | 0.17 | 88 | 1011.5 |
| 20260506170431 | 61 | 198 | 2.0 | 7.0 | 0.00 | 0.17 | 0.17 | 88 | 1011.2 |
| 20260506165925 | 61 | 210 | 5.0 | 9.0 | 0.00 | 0.17 | 0.17 | 88 | 1011.2 |
| 20260506165423 | 61 | 159 | 6.0 | 10.0 | 0.00 | 0.17 | 0.17 | 88 | 1011.2 |
| 20260506164919 | 62 | 99 | 1.0 | 5.0 | 0.00 | 0.17 | 0.17 | 88 | 1011.1 |
| 20260506164415 | 61 | 139 | 2.0 | 6.0 | 0.00 | 0.17 | 0.17 | 88 | 1011.1 |
| 20260506163913 | 61 | 174 | 3.0 | 8.0 | 0.05 | 0.17 | 0.17 | 88 | 1011.2 |
| 20260506163407 | 61 | 225 | 5.0 | 8.0 | 0.05 | 0.17 | 0.17 | 88 | 1011.2 |
| 20260506162902 | 62 | 166 | 2.0 | 6.0 | 0.00 | 0.16 | 0.16 | 88 | 1011.3 |
| 20260506162400 | 61 | 85 | 3.0 | 3.0 | 0.00 | 0.16 | 0.16 | 88 | 1011.2 |
| 20260506161852 | 61 | 125 | 2.0 | 3.0 | 0.00 | 0.16 | 0.16 | 87 | 1011.2 |
| 20260506161349 | 61 | 81 | 2.0 | 2.0 | 0.00 | 0.16 | 0.16 | 87 | 1011.5 |
| 20260506160842 | 61 | 152 | 2.0 | 3.0 | 0.07 | 0.16 | 0.16 | 87 | 1011.9 |
| 20260506160338 | 61 | 106 | 2.0 | 6.0 | 0.07 | 0.16 | 0.16 | 86 | 1011.9 |
| 20260506155837 | 61 | 79 | 1.0 | 5.0 | 0.05 | 0.15 | 0.15 | 86 | 1012.3 |
| 20260506155333 | 61 | 239 | 4.0 | 7.0 | 0.12 | 0.15 | 0.15 | 86 | 1012.4 |
| 20260506153450 | 61 | 210 | 3.0 | 5.0 | 0.12 | 0.11 | 0.11 | 84 | 1012.5 |
| 20260506152948 | 61 | 67 | 1.0 | 2.0 | 0.12 | 0.10 | 0.10 | 84 | 1012.5 |
| 20260506152445 | 61 | 195 | 1.0 | 2.0 | 0.12 | 0.09 | 0.09 | 83 | 1012.4 |
| 20260506151943 | 61 | 206 | 3.0 | 3.0 | 0.12 | 0.08 | 0.08 | 83 | 1012.5 |
| 20260506151440 | 61 | 121 | 2.0 | 3.0 | 0.19 | 0.07 | 0.07 | 83 | 1012.5 |
| 20260506150938 | 61 | 193 | 3.0 | 7.0 | 0.07 | 0.05 | 0.05 | 82 | 1012.3 |
| 20260506150433 | 61 | 218 | 5.0 | 6.0 | 0.05 | 0.04 | 0.04 | 82 | 1012.3 |
| 20260506145931 | 62 | 203 | 4.0 | 6.0 | 0.00 | 0.03 | 0.03 | 82 | 1012.5 |
| 20260506145427 | 62 | 191 | 3.0 | 6.0 | 0.00 | 0.03 | 0.03 | 82 | 1012.4 |
| 20260506144925 | 62 | 236 | 3.0 | 3.0 | 0.00 | 0.03 | 0.03 | 81 | 1012.4 |
| 20260506144421 | 62 | 191 | 2.0 | 3.0 | 0.07 | 0.03 | 0.03 | 80 | 1012.3 |
| 20260506143919 | 62 | 135 | 3.0 | 3.0 | 0.07 | 0.03 | 0.03 | 79 | 1012.3 |
| 20260506143416 | 63 | 124 | 2.0 | 3.0 | 0.12 | 0.02 | 0.02 | 78 | 1012.3 |
| 20260506142914 | 64 | 126 | 1.0 | 5.0 | 0.07 | 0.01 | 0.01 | 75 | 1012.5 |
| 20260506142412 | 64 | 96 | 2.0 | 2.0 | 0.00 | 0.00 | 0.00 | 73 | 1012.5 |
| 20260506141910 | 65 | 63 | 2.0 | 5.0 | 0.00 | 0.00 | 0.00 | 71 | 1012.4 |
| 20260506141408 | 65 | 287 | 3.0 | 5.0 | 0.00 | 0.00 | 0.00 | 71 | 1012.6 |
| 20260506140906 | 66 | 251 | 2.0 | 3.0 | 0.00 | 0.00 | 0.00 | 70 | 1012.4 |
| 20260506140402 | 66 | 227 | 5.0 | 6.0 | 0.00 | 0.00 | 0.00 | 69 | 1012.2 |
| 20260506135859 | 66 | 132 | 2.0 | 3.0 | 0.00 | 0.00 | 0.00 | 69 | 1012.1 |
| 20260506135356 | 66 | 287 | 3.0 | 5.0 | 0.00 | 0.00 | 0.00 | 68 | 1012.2 |
| 20260506134852 | 66 | 163 | 2.0 | 5.0 | 0.00 | 0.00 | 0.00 | 68 | 1012.0 |
| 20260506134349 | 67 | 69 | 3.0 | 7.0 | 0.00 | 0.00 | 0.00 | 68 | 1012.0 |
| 20260506133846 | 67 | 259 | 6.0 | 8.0 | 0.00 | 0.00 | 0.00 | 67 | 1012.1 |
| 20260506133342 | 66 | 155 | 3.0 | 5.0 | 0.00 | 0.00 | 0.00 | 68 | 1012.1 |
| 20260506132839 | 66 | 174 | 5.0 | 6.0 | 0.00 | 0.00 | 0.00 | 68 | 1012.3 |
| 20260506132336 | 66 | 67 | 3.0 | 7.0 | 0.00 | 0.00 | 0.00 | 68 | 1012.4 |
| 20260506131835 | 66 | 81 | 2.0 | 6.0 | 0.00 | 0.00 | 0.00 | 67 | 1012.3 |
| 20260506131330 | 66 | 218 | 2.0 | 5.0 | 0.00 | 0.00 | 0.00 | 67 | 1012.1 |
| 20260506130828 | 66 | 240 | 3.0 | 6.0 | 0.00 | 0.00 | 0.00 | 67 | 1012.2 |
| 20260506130324 | 66 | 242 | 6.0 | 8.0 | 0.00 | 0.00 | 0.00 | 67 | 1012.4 |
| 20260506125822 | 66 | 229 | 10.0 | 15.0 | 0.00 | 0.00 | 0.00 | 67 | 1012.6 |
| 20260506125320 | 67 | 223 | 7.0 | 10.0 | 0.00 | 0.00 | 0.00 | 66 | 1012.6 |
| 20260506124818 | 67 | 88 | 2.0 | 3.0 | 0.00 | 0.00 | 0.00 | 66 | 1012.5 |
| 20260506124315 | 67 | 200 | 2.0 | 7.0 | 0.00 | 0.00 | 0.00 | 66 | 1012.3 |
| 20260506123813 | 67 | 150 | 4.0 | 10.0 | 0.00 | 0.00 | 0.00 | 65 | 1012.4 |
| 20260506123311 | 67 | 81 | 5.0 | 8.0 | 0.00 | 0.00 | 0.00 | 66 | 1012.3 |
| 20260506122808 | 66 | 223 | 4.0 | 6.0 | 0.00 | 0.00 | 0.00 | 66 | 1012.3 |
| 20260506122306 | 66 | 73 | 3.0 | 6.0 | 0.00 | 0.00 | 0.00 | 66 | 1012.2 |
| 20260506121803 | 66 | 183 | 4.0 | 5.0 | 0.00 | 0.00 | 0.00 | 66 | 1012.0 |
| 20260506121259 | 66 | 176 | 3.0 | 7.0 | 0.00 | 0.00 | 0.00 | 66 | 1012.2 |
| 20260506120757 | 66 | 80 | 3.0 | 6.0 | 0.00 | 0.00 | 0.00 | 66 | 1012.2 |
| 20260506120254 | 66 | 174 | 3.0 | 7.0 | 0.00 | 0.00 | 0.00 | 66 | 1012.1 |
| 20260506115752 | 66 | 201 | 4.0 | 6.0 | 0.00 | 0.00 | 0.00 | 67 | 1012.0 |
| 20260506115250 | 66 | 56 | 2.0 | 5.0 | 0.00 | 0.00 | 0.00 | 66 | 1012.0 |
| 20260506114747 | 66 | 198 | 5.0 | 7.0 | 0.00 | 0.00 | 0.00 | 67 | 1012.0 |
| 20260506114245 | 66 | 143 | 2.0 | 6.0 | 0.00 | 0.00 | 0.00 | 67 | 1011.9 |
| 20260506113743 | 66 | 140 | 3.0 | 9.0 | 0.00 | 0.00 | 0.00 | 67 | 1011.8 |
| 20260506113240 | 66 | 166 | 3.0 | 5.0 | 0.00 | 0.00 | 0.00 | 67 | 1011.9 |
| 20260506112736 | 66 | 204 | 4.0 | 8.0 | 0.00 | 0.00 | 0.00 | 67 | 1011.8 |
| 20260506112234 | 66 | 189 | 7.0 | 11.0 | 0.00 | 0.00 | 0.00 | 67 | 1012.0 |
| 20260506111731 | 66 | 220 | 5.0 | 8.0 | 0.00 | 0.00 | 0.00 | 67 | 1011.9 |
| 20260506111230 | 66 | 287 | 3.0 | 6.0 | 0.00 | 0.00 | 0.00 | 67 | 1012.0 |
| 20260506110726 | 66 | 139 | 4.0 | 7.0 | 0.00 | 0.00 | 0.00 | 67 | 1011.9 |
| 20260506110224 | 66 | 102 | 2.0 | 5.0 | 0.00 | 0.00 | 0.00 | 67 | 1011.9 |
| 20260506105720 | 66 | 210 | 3.0 | 5.0 | 0.00 | 0.00 | 0.00 | 67 | 1011.7 |
| 20260506105217 | 65 | 137 | 3.0 | 5.0 | 0.00 | 0.00 | 0.00 | 68 | 1011.9 |
| 20260506104715 | 65 | 96 | 3.0 | 6.0 | 0.00 | 0.00 | 0.00 | 68 | 1011.8 |
| 20260506104213 | 65 | 60 | 2.0 | 6.0 | 0.00 | 0.00 | 0.00 | 68 | 1011.8 |
| 20260506103709 | 65 | 99 | 4.0 | 8.0 | 0.00 | 0.00 | 0.00 | 68 | 1011.8 |
| 20260506103206 | 65 | 93 | 5.0 | 9.0 | 0.00 | 0.00 | 0.00 | 68 | 1011.7 |
| 20260506102704 | 65 | 96 | 3.0 | 3.0 | 0.00 | 0.00 | 0.00 | 67 | 1011.9 |
| 20260506102202 | 66 | 153 | 2.0 | 6.0 | 0.00 | 0.00 | 0.00 | 68 | 1011.7 |
| 20260506101659 | 66 | 118 | 2.0 | 6.0 | 0.00 | 0.00 | 0.00 | 67 | 1011.5 |
| 20260506101155 | 66 | 86 | 2.0 | 6.0 | 0.00 | 0.00 | 0.00 | 67 | 1011.6 |
| 20260506100654 | 66 | 105 | 2.0 | 5.0 | 0.00 | 0.00 | 0.00 | 67 | 1011.7 |
| 20260506100151 | 66 | 142 | 6.0 | 8.0 | 0.00 | 0.00 | 0.00 | 67 | 1011.8 |
| 20260506095650 | 66 | 112 | 3.0 | 6.0 | 0.00 | 0.00 | 0.00 | 67 | 1011.6 |
| 20260506095146 | 66 | 120 | 3.0 | 5.0 | 0.00 | 0.00 | 0.00 | 67 | 1011.7 |
| 20260506094643 | 66 | 196 | 2.0 | 6.0 | 0.00 | 0.00 | 0.00 | 67 | 1011.8 |
| 20260506094141 | 66 | 148 | 3.0 | 8.0 | 0.00 | 0.00 | 0.00 | 67 | 1011.8 |
| 20260506093639 | 66 | 264 | 4.0 | 13.0 | 0.00 | 0.00 | 0.00 | 67 | 1011.6 |
| 20260506093136 | 66 | 208 | 3.0 | 8.0 | 0.00 | 0.00 | 0.00 | 67 | 1011.8 |
| 20260506092634 | 66 | 49 | 1.0 | 9.0 | 0.00 | 0.00 | 0.00 | 67 | 1011.7 |
| 20260506092131 | 66 | 111 | 3.0 | 6.0 | 0.00 | 0.00 | 0.00 | 66 | 1011.6 |
| 20260506091629 | 66 | 250 | 5.0 | 7.0 | 0.00 | 0.00 | 0.00 | 66 | 1011.8 |
| 20260506091126 | 66 | 169 | 3.0 | 5.0 | 0.00 | 0.00 | 0.00 | 66 | 1011.6 |
| 20260506090624 | 67 | 106 | 2.0 | 5.0 | 0.00 | 0.00 | 0.00 | 65 | 1011.7 |
| 20260506090120 | 67 | 312 | 3.0 | 5.0 | 0.00 | 0.00 | 0.00 | 65 | 1011.7 |
| 20260506085617 | 67 | 146 | 3.0 | 8.0 | 0.00 | 0.00 | 0.00 | 65 | 1011.8 |
| 20260506085114 | 67 | 191 | 6.0 | 8.0 | 0.00 | 0.00 | 0.00 | 65 | 1011.7 |
| 20260506084610 | 67 | 110 | 2.0 | 5.0 | 0.00 | 0.00 | 0.00 | 65 | 1011.7 |
| 20260506084107 | 67 | 101 | 6.0 | 11.0 | 0.00 | 0.00 | 0.00 | 65 | 1011.6 |
| 20260506083604 | 67 | 189 | 3.0 | 5.0 | 0.00 | 0.00 | 0.00 | 65 | 1011.8 |
| 20260506083102 | 67 | 181 | 4.0 | 8.0 | 0.00 | 0.00 | 0.00 | 65 | 1011.7 |
| 20260506082558 | 67 | 80 | 2.0 | 10.0 | 0.00 | 0.00 | 0.00 | 65 | 1011.8 |
| 20260506082054 | 67 | 220 | 3.0 | 6.0 | 0.00 | 0.00 | 0.00 | 65 | 1011.9 |
| 20260506081552 | 67 | 79 | 5.0 | 7.0 | 0.00 | 0.00 | 0.00 | 65 | 1011.9 |
| 20260506081049 | 67 | 59 | 2.0 | 7.0 | 0.00 | 0.00 | 0.00 | 65 | 1011.8 |
| 20260506080547 | 67 | 185 | 4.0 | 8.0 | 0.00 | 0.00 | 0.00 | 65 | 1011.9 |
| 20260506073027 | 67 | 195 | 2.0 | 5.0 | 0.00 | 0.00 | 0.00 | 64 | 1012.0 |
| 20260506072524 | 67 | 217 | 2.0 | 5.0 | 0.00 | 0.00 | 0.00 | 64 | 1012.2 |
| 20260506072022 | 67 | 171 | 3.0 | 6.0 | 0.00 | 0.00 | 0.00 | 64 | 1012.0 |
| 20260506071520 | 68 | 189 | 3.0 | 8.0 | 0.00 | 0.00 | 0.00 | 64 | 1012.1 |
| 20260506071017 | 68 | 150 | 3.0 | 10.0 | 0.00 | 0.00 | 0.00 | 63 | 1012.1 |
| 20260506070514 | 68 | 129 | 3.0 | 9.0 | 0.00 | 0.00 | 0.00 | 63 | 1012.2 |
| 20260506062451 | 68 | 96 | 1.0 | 2.0 | 0.00 | 0.00 | 0.00 | 61 | 1012.5 |
| 20260506061947 | 68 | 161 | 4.0 | 7.0 | 0.00 | 0.00 | 0.00 | 61 | 1012.6 |
| 20260506061444 | 68 | 196 | 3.0 | 6.0 | 0.00 | 0.00 | 0.00 | 61 | 1012.6 |
| 20260506060942 | 68 | 119 | 2.0 | 3.0 | 0.00 | 0.00 | 0.00 | 61 | 1012.6 |
| 20260506060440 | 68 | 128 | 3.0 | 10.0 | 0.00 | 0.00 | 0.00 | 61 | 1012.6 |
| 20260506051412 | 68 | 95 | 2.0 | 5.0 | 0.00 | 0.00 | 0.00 | 60 | 1013.2 |
| 20260506050909 | 68 | 254 | 3.0 | 6.0 | 0.00 | 0.00 | 0.00 | 59 | 1013.0 |
| 20260506050406 | 68 | 134 | 3.0 | 8.0 | 0.00 | 0.00 | 0.00 | 59 | 1013.1 |
| 20260506044857 | 68 | 121 | 3.0 | 3.0 | 0.00 | 0.00 | 0.00 | 60 | 1013.3 |
| 20260506044354 | 68 | 115 | 1.0 | 3.0 | 0.00 | 0.00 | 0.00 | 59 | 1013.3 |
| 20260506043851 | 68 | 77 | 1.0 | 3.0 | 0.00 | 0.00 | 0.00 | 59 | 1013.2 |
| 20260506043348 | 68 | 153 | 3.0 | 5.0 | 0.00 | 0.00 | 0.00 | 59 | 1013.2 |
| 20260506042847 | 68 | 103 | 1.0 | 3.0 | 0.00 | 0.00 | 0.00 | 58 | 1013.2 |
| 20260506042346 | 68 | 77 | 2.0 | 7.0 | 0.00 | 0.00 | 0.00 | 58 | 1013.4 |
| 20260506041844 | 68 | 76 | 2.0 | 6.0 | 0.00 | 0.00 | 0.00 | 58 | 1013.3 |
| 20260506041341 | 68 | 150 | 3.0 | 5.0 | 0.00 | 0.00 | 0.00 | 58 | 1013.2 |
| 20260506040837 | 68 | 104 | 3.0 | 6.0 | 0.00 | 0.00 | 0.00 | 58 | 1013.2 |
| 20260506040335 | 68 | 158 | 2.0 | 5.0 | 0.00 | 0.00 | 0.00 | 58 | 1013.2 |
| 20260506035831 | 68 | 100 | 2.0 | 5.0 | 0.00 | 0.00 | 0.00 | 58 | 1013.2 |
| 20260506035329 | 68 | 167 | 2.0 | 5.0 | 0.00 | 0.00 | 0.00 | 57 | 1013.3 |
| 20260506034826 | 69 | 148 | 3.0 | 5.0 | 0.00 | 0.00 | 0.00 | 57 | 1013.3 |
| 20260506034323 | 69 | 166 | 2.0 | 5.0 | 0.00 | 0.00 | 0.00 | 56 | 1013.1 |
| 20260506033820 | 69 | 172 | 4.0 | 5.0 | 0.00 | 0.00 | 0.00 | 56 | 1013.1 |
| 20260506033317 | 69 | 99 | 2.0 | 7.0 | 0.00 | 0.00 | 0.00 | 55 | 1013.0 |
| 20260506032813 | 69 | 161 | 3.0 | 7.0 | 0.00 | 0.00 | 0.00 | 55 | 1013.2 |
| 20260506032310 | 69 | 84 | 2.0 | 2.0 | 0.00 | 0.00 | 0.00 | 55 | 1013.0 |
| 20260506031807 | 69 | 151 | 2.0 | 5.0 | 0.00 | 0.00 | 0.00 | 54 | 1013.2 |
| 20260506031304 | 70 | 176 | 3.0 | 6.0 | 0.00 | 0.00 | 0.00 | 54 | 1013.0 |
| 20260506030802 | 70 | 80 | 1.0 | 7.0 | 0.00 | 0.00 | 0.00 | 53 | 1013.1 |
| 20260506030300 | 70 | 119 | 3.0 | 6.0 | 0.00 | 0.00 | 0.00 | 53 | 1013.2 |
| 20260506025757 | 71 | 73 | 2.0 | 5.0 | 0.00 | 0.00 | 0.00 | 52 | 1013.2 |
| 20260506025253 | 71 | 127 | 2.0 | 6.0 | 0.00 | 0.00 | 0.00 | 51 | 1013.1 |
| 20260506024750 | 71 | 31 | 3.0 | 6.0 | 0.00 | 0.00 | 0.00 | 50 | 1013.0 |
| 20260506024247 | 71 | 91 | 2.0 | 6.0 | 0.00 | 0.00 | 0.00 | 50 | 1013.2 |
| 20260506023743 | 71 | 160 | 6.0 | 10.0 | 0.00 | 0.00 | 0.00 | 49 | 1013.2 |
| 20260506023240 | 72 | 151 | 3.0 | 10.0 | 0.00 | 0.00 | 0.00 | 49 | 1013.2 |
| 20260506022736 | 72 | 99 | 2.0 | 5.0 | 0.00 | 0.00 | 0.00 | 49 | 1013.2 |
| 20260506022235 | 72 | 130 | 2.0 | 10.0 | 0.00 | 0.00 | 0.00 | 48 | 1013.3 |
| 20260506021732 | 72 | 57 | 3.0 | 5.0 | 0.00 | 0.00 | 0.00 | 48 | 1013.1 |
| 20260506021229 | 72 | 149 | 8.0 | 11.0 | 0.00 | 0.00 | 0.00 | 47 | 1013.1 |
| 20260506020726 | 73 | 147 | 7.0 | 9.0 | 0.00 | 0.00 | 0.00 | 47 | 1013.1 |
| 20260506020224 | 72 | 127 | 6.0 | 8.0 | 0.00 | 0.00 | 0.00 | 47 | 1013.3 |
| 20260506015721 | 73 | 110 | 3.0 | 3.0 | 0.00 | 0.00 | 0.00 | 46 | 1013.3 |
| 20260506015219 | 73 | 190 | 1.0 | 6.0 | 0.00 | 0.00 | 0.00 | 46 | 1012.9 |
| 20260506014715 | 73 | 136 | 2.0 | 5.0 | 0.00 | 0.00 | 0.00 | 46 | 1013.1 |
| 20260506014211 | 73 | 83 | 2.0 | 5.0 | 0.00 | 0.00 | 0.00 | 45 | 1012.9 |
| 20260506013709 | 73 | 161 | 3.0 | 5.0 | 0.00 | 0.00 | 0.00 | 45 | 1012.9 |
| 20260506013206 | 73 | 223 | 3.0 | 9.0 | 0.00 | 0.00 | 0.00 | 44 | 1012.6 |
| 20260506012702 | 73 | 166 | 3.0 | 5.0 | 0.00 | 0.00 | 0.00 | 44 | 1012.8 |
| 20260506012159 | 74 | 91 | 2.0 | 3.0 | 0.00 | 0.00 | 0.00 | 43 | 1012.7 |
| 20260506011657 | 74 | 167 | 3.0 | 7.0 | 0.00 | 0.00 | 0.00 | 43 | 1012.7 |
| 20260506011152 | 74 | 102 | 2.0 | 6.0 | 0.00 | 0.00 | 0.00 | 42 | 1012.7 |
| 20260506010652 | 75 | 110 | 2.0 | 8.0 | 0.00 | 0.00 | 0.00 | 42 | 1012.6 |
| 20260506010148 | 75 | 171 | 2.0 | 7.0 | 0.00 | 0.00 | 0.00 | 42 | 1012.6 |
| 20260506005645 | 75 | 137 | 3.0 | 5.0 | 0.00 | 0.00 | 0.00 | 42 | 1012.5 |
| 20260506005142 | 75 | 172 | 2.0 | 3.0 | 0.00 | 0.00 | 0.00 | 42 | 1012.3 |
| 20260506004638 | 75 | 178 | 3.0 | 7.0 | 0.00 | 0.00 | 0.00 | 41 | 1012.5 |
| 20260506004135 | 75 | 153 | 4.0 | 7.0 | 0.00 | 0.00 | 0.00 | 40 | 1012.3 |
| 20260506003631 | 75 | 182 | 2.0 | 5.0 | 0.00 | 0.00 | 0.00 | 40 | 1012.4 |
| 20260506003128 | 76 | 90 | 1.0 | 2.0 | 0.00 | 0.00 | 0.00 | 40 | 1012.5 |
| 20260506002619 | 77 | 231 | 4.0 | 8.0 | 0.00 | 0.00 | 0.00 | 39 | 1012.4 |
| 20260506002115 | 76 | 86 | 2.0 | 6.0 | 0.00 | 0.00 | 0.00 | 39 | 1012.2 |
| 20260506001611 | 76 | 120 | 1.0 | 1.0 | 0.00 | 0.00 | 0.00 | 39 | 1012.3 |
| 20260506001108 | 77 | 129 | 2.0 | 3.0 | 0.00 | 0.00 | 0.00 | 38 | 1012.2 |
| 20260506000606 | 77 | 160 | 5.0 | 7.0 | 0.00 | 0.00 | 0.00 | 37 | 1012.2 |
| 20260505235601 | 77 | 117 | 2.0 | 3.0 | 0.00 | 0.00 | 0.00 | 36 | 1011.9 |
| 20260505235058 | 77 | 259 | 8.0 | 9.0 | 0.00 | 0.00 | 0.00 | 35 | 1012.1 |
| 20260505234554 | 78 | 176 | 3.0 | 6.0 | 0.00 | 0.00 | 0.00 | 36 | 1012.0 |
| 20260505234051 | 78 | 82 | 3.0 | 7.0 | 0.00 | 0.00 | 0.00 | 36 | 1011.9 |
| 20260505233549 | 78 | 83 | 1.0 | 10.0 | 0.00 | 0.00 | 0.00 | 35 | 1012.0 |
| 20260505233046 | 78 | 244 | 2.0 | 11.0 | 0.00 | 0.00 | 0.00 | 36 | 1011.9 |
| 20260505232544 | 78 | 103 | 3.0 | 5.0 | 0.00 | 0.00 | 0.00 | 35 | 1012.1 |
| 20260505232041 | 78 | 135 | 3.0 | 5.0 | 0.00 | 0.00 | 0.00 | 35 | 1011.9 |
| 20260505231538 | 78 | 118 | 2.0 | 3.0 | 0.00 | 0.00 | 0.00 | 36 | 1011.9 |
| 20260505231036 | 79 | 359 | 3.0 | 3.0 | 0.00 | 0.00 | 0.00 | 35 | 1011.9 |
| 20260505230533 | 79 | 84 | 3.0 | 8.0 | 0.00 | 0.00 | 0.00 | 35 | 1011.9 |
| 20260505230030 | 79 | 176 | 5.0 | 6.0 | 0.00 | 0.00 | 0.00 | 35 | 1011.9 |
| 20260505225527 | 79 | 56 | 2.0 | 9.0 | 0.00 | 0.00 | 0.00 | 35 | 1011.7 |
| 20260505225023 | 79 | 235 | 3.0 | 5.0 | 0.00 | 0.00 | 0.00 | 35 | 1011.8 |
| 20260505224520 | 79 | 154 | 2.0 | 8.0 | 0.00 | 0.00 | 0.00 | 34 | 1011.8 |
| 20260505224017 | 79 | 180 | 3.0 | 9.0 | 0.00 | 0.00 | 0.00 | 34 | 1011.7 |
| 20260505223514 | 79 | 224 | 8.0 | 18.0 | 0.00 | 0.00 | 0.00 | 34 | 1011.9 |
| 20260505223010 | 80 | 136 | 3.0 | 6.0 | 0.00 | 0.00 | 0.00 | 34 | 1011.8 |
| 20260505222507 | 80 | 272 | 3.0 | 10.0 | 0.00 | 0.00 | 0.00 | 33 | 1011.7 |
| 20260505222002 | 81 | 193 | 4.0 | 8.0 | 0.00 | 0.00 | 0.00 | 32 | 1011.8 |
| 20260505221500 | 81 | 182 | 7.0 | 13.0 | 0.00 | 0.00 | 0.00 | 32 | 1012.0 |
| 20260505220957 | 82 | 236 | 7.0 | 11.0 | 0.00 | 0.00 | 0.00 | 32 | 1011.8 |
| 20260505220454 | 82 | 137 | 6.0 | 11.0 | 0.00 | 0.00 | 0.00 | 32 | 1011.8 |
| 20260505215951 | 81 | 237 | 3.0 | 10.0 | 0.00 | 0.00 | 0.00 | 31 | 1011.7 |
| 20260505215449 | 82 | 217 | 7.0 | 11.0 | 0.00 | 0.00 | 0.00 | 31 | 1011.7 |
| 20260505214947 | 81 | 167 | 5.0 | 9.0 | 0.00 | 0.00 | 0.00 | 31 | 1011.4 |
| 20260505214445 | 81 | 55 | 3.0 | 10.0 | 0.00 | 0.00 | 0.00 | 31 | 1011.5 |
| 20260505213941 | 82 | 210 | 7.0 | 13.0 | 0.00 | 0.00 | 0.00 | 30 | 1011.6 |
| 20260505213439 | 82 | 216 | 8.0 | 17.0 | 0.00 | 0.00 | 0.00 | 31 | 1011.5 |
| 20260505212935 | 82 | 98 | 4.0 | 11.0 | 0.00 | 0.00 | 0.00 | 30 | 1011.4 |
| 20260505212432 | 82 | 262 | 5.0 | 16.0 | 0.00 | 0.00 | 0.00 | 30 | 1011.2 |
| 20260505211928 | 82 | 278 | 3.0 | 10.0 | 0.00 | 0.00 | 0.00 | 31 | 1011.5 |
| 20260505211426 | 81 | 155 | 5.0 | 10.0 | 0.00 | 0.00 | 0.00 | 31 | 1011.5 |
| 20260505210922 | 82 | 155 | 5.0 | 14.0 | 0.00 | 0.00 | 0.00 | 30 | 1011.4 |
| 20260505210420 | 82 | 161 | 6.0 | 9.0 | 0.00 | 0.00 | 0.00 | 29 | 1011.4 |
| 20260505205916 | 82 | 169 | 6.0 | 8.0 | 0.00 | 0.00 | 0.00 | 30 | 1011.6 |
| 20260505205415 | 82 | 327 | 7.0 | 14.0 | 0.00 | 0.00 | 0.00 | 28 | 1011.4 |
| 20260505204911 | 82 | 197 | 5.0 | 14.0 | 0.00 | 0.00 | 0.00 | 29 | 1011.6 |
| 20260505204409 | 82 | 243 | 8.0 | 13.0 | 0.00 | 0.00 | 0.00 | 27 | 1011.6 |
| 20260505203906 | 81 | 195 | 7.0 | 11.0 | 0.00 | 0.00 | 0.00 | 29 | 1011.5 |
| 20260505203402 | 82 | 269 | 13.0 | 18.0 | 0.00 | 0.00 | 0.00 | 28 | 1011.5 |
| 20260505202859 | 82 | 275 | 7.0 | 10.0 | 0.00 | 0.00 | 0.00 | 29 | 1011.4 |
| 20260505202355 | 82 | 191 | 6.0 | 8.0 | 0.00 | 0.00 | 0.00 | 30 | 1011.5 |